• In Czech Republic
  • List of Countries
  • For 7 days
  • Water Temperature
  • Satellite Maps
  • Weather Map
  • Weather Widgets
  • user-avatar
    Login

    Hourly Weather Hobart

    Today, 18 January, Thursday

    Time Temperature Precipitation Wind Pressure Humidity
    00:00 +12°C° 0 mm 2 mps 749 mmHg 97%
    01:00 +12°C° 0 mm 2 mps 748 mmHg 98%
    02:00 +12°C° 0 mm 2 mps 748 mmHg 96%
    03:00 +12°C° 0 mm 2 mps 748 mmHg 94%
    04:00 +12°C° 0 mm 2 mps 747 mmHg 93%
    05:00 +14°C° 0 mm 2 mps 747 mmHg 81%
    06:00 +16°C° 0 mm 2 mps 747 mmHg 70%
    07:00 +17°C° 0 mm 2 mps 747 mmHg 59%
    08:00 +22°C° 0 mm 1 mps 747 mmHg 47%
    09:00 +25°C° 0 mm 1 mps 747 mmHg 35%
    10:00 +27°C° 0 mm 2 mps 747 mmHg 25%
    11:00 +29°C° 0 mm 2 mps 746 mmHg 22%
    12:00 +31°C° 0 mm 2 mps 746 mmHg 18%
    13:00 +34°C° 0 mm 2 mps 745 mmHg 14%
    14:00 +35°C° 0 mm 3 mps 745 mmHg 15%
    15:00 +36°C° 0 mm 3 mps 744 mmHg 15%
    16:00 +37°C° 0 mm 4 mps 744 mmHg 15%
    17:00 +34°C° 0 mm 3 mps 743 mmHg 21%
    18:00 +31°C° 0 mm 3 mps 743 mmHg 28%
    19:00 +29°C° 0 mm 2 mps 743 mmHg 34%
    20:00 +26°C° 0 mm 2 mps 743 mmHg 39%
    21:00 +24°C° 0 mm 2 mps 743 mmHg 44%
    22:00 +21°C° 0 mm 3 mps 743 mmHg 48%
    23:00 +21°C° 0 mm 3 mps 742 mmHg 48%

    Tomorrow, 19 January, Friday

    Time Temperature Precipitation Wind Pressure Humidity
    00:00 +20°C° 0 mm 3 mps 742 mmHg 48%
    01:00 +20°C° 0 mm 3 mps 742 mmHg 48%
    02:00 +21°C° 0 mm 3 mps 741 mmHg 44%
    03:00 +21°C° 0 mm 3 mps 741 mmHg 41%
    04:00 +22°C° 0 mm 3 mps 741 mmHg 38%
    05:00 +24°C° 0 mm 3 mps 741 mmHg 37%
    06:00 +25°C° 0 mm 3 mps 742 mmHg 37%
    07:00 +26°C° 0 mm 3 mps 742 mmHg 37%
    08:00 +27°C° 0 mm 4 mps 743 mmHg 39%
    09:00 +28°C° 0 mm 4 mps 743 mmHg 40%
    10:00 +30°C° 0 mm 5 mps 744 mmHg 42%
    11:00 +30°C° 0 mm 5 mps 744 mmHg 41%
    12:00 +32°C° 0 mm 5 mps 744 mmHg 41%
    13:00 +32°C° 0 mm 6 mps 745 mmHg 40%
    14:00 +30°C° 0.1 mm 5 mps 745 mmHg 45%
    15:00 +28°C° 0.1 mm 5 mps 745 mmHg 49%
    16:00 +27°C° 0.1 mm 4 mps 745 mmHg 53%
    17:00 +25°C° 0 mm 4 mps 746 mmHg 59%
    18:00 +21°C° 0 mm 3 mps 746 mmHg 66%
    19:00 +19°C° 0 mm 3 mps 747 mmHg 72%
    20:00 +17°C° 0 mm 2 mps 747 mmHg 76%
    21:00 +16°C° 0 mm 2 mps 748 mmHg 81%
    22:00 +14°C° 0 mm 1 mps 748 mmHg 85%
    23:00 +14°C° 0 mm 1 mps 748 mmHg 86%

    Day after tomorrow, 20 January, Saturday

    Time Temperature Precipitation Wind Pressure Humidity
    00:00 +14°C° 0 mm 1 mps 748 mmHg 88%
    01:00 +13°C° 0 mm 1 mps 748 mmHg 89%
    02:00 +12°C° 0 mm 0 mps 748 mmHg 89%
    03:00 +12°C° 0 mm 0 mps 748 mmHg 90%
    04:00 +12°C° 0 mm 0 mps 748 mmHg 90%
    05:00 +13°C° 0 mm 0 mps 748 mmHg 86%
    06:00 +14°C° 0 mm 0 mps 749 mmHg 82%
    07:00 +16°C° 0 mm 1 mps 749 mmHg 77%
    08:00 +20°C° 0 mm 1 mps 749 mmHg 66%
    09:00 +22°C° 0 mm 1 mps 749 mmHg 55%
    10:00 +25°C° 0 mm 2 mps 749 mmHg 43%
    11:00 +26°C° 0 mm 2 mps 749 mmHg 40%
    12:00 +28°C° 0 mm 3 mps 749 mmHg 36%
    13:00 +29°C° 0 mm 3 mps 749 mmHg 33%
    14:00 +28°C° 0 mm 3 mps 749 mmHg 37%
    15:00 +26°C° 0 mm 4 mps 748 mmHg 42%
    16:00 +25°C° 0 mm 4 mps 748 mmHg 47%
    17:00 +22°C° 0 mm 4 mps 748 mmHg 55%
    18:00 +20°C° 0 mm 3 mps 748 mmHg 63%
    19:00 +18°C° 0 mm 3 mps 748 mmHg 70%
    20:00 +17°C° 0 mm 3 mps 748 mmHg 79%
    21:00 +15°C° 0 mm 2 mps 749 mmHg 87%
    22:00 +14°C° 0 mm 2 mps 749 mmHg 96%
    23:00 +14°C° 0 mm 2 mps 748 mmHg 95%

    21 January, Sunday

    Time Temperature Precipitation Wind Pressure Humidity
    00:00 +14°C° 0 mm 2 mps 748 mmHg 95%
    01:00 +14°C° 0 mm 2 mps 748 mmHg 95%
    02:00 +14°C° 0 mm 2 mps 747 mmHg 96%
    03:00 +13°C° 0 mm 2 mps 747 mmHg 97%
    04:00 +13°C° 0 mm 1 mps 746 mmHg 98%
    05:00 +14°C° 0 mm 1 mps 746 mmHg 92%
    06:00 +16°C° 0 mm 1 mps 746 mmHg 86%
    07:00 +16°C° 0 mm 0 mps 746 mmHg 79%
    08:00 +21°C° 0 mm 1 mps 746 mmHg 67%
    09:00 +24°C° 0 mm 1 mps 746 mmHg 55%
    10:00 +27°C° 0 mm 1 mps 746 mmHg 43%
    11:00 +28°C° 0 mm 2 mps 746 mmHg 40%
    12:00 +29°C° 0 mm 2 mps 745 mmHg 36%
    13:00 +30°C° 0 mm 3 mps 745 mmHg 33%
    14:00 +29°C° 0 mm 3 mps 744 mmHg 38%
    15:00 +28°C° 0 mm 3 mps 744 mmHg 43%
    16:00 +27°C° 0 mm 4 mps 744 mmHg 48%
    17:00 +25°C° 0 mm 3 mps 744 mmHg 57%
    18:00 +22°C° 0 mm 3 mps 744 mmHg 67%
    19:00 +20°C° 0 mm 2 mps 744 mmHg 77%
    20:00 +19°C° 0 mm 2 mps 744 mmHg 83%
    21:00 +17°C° 0 mm 2 mps 744 mmHg 90%
    22:00 +16°C° 0 mm 1 mps 744 mmHg 97%
    23:00 +16°C° 0 mm 1 mps 743 mmHg 97%

    22 January, Monday

    Time Temperature Precipitation Wind Pressure Humidity
    00:00 +16°C° 0 mm 1 mps 742 mmHg 97%
    01:00 +16°C° 0 mm 1 mps 742 mmHg 98%
    02:00 +15°C° 0 mm 1 mps 742 mmHg 98%
    03:00 +15°C° 0 mm 1 mps 741 mmHg 98%
    04:00 +15°C° 0 mm 1 mps 741 mmHg 98%
    05:00 +16°C° 0 mm 1 mps 741 mmHg 94%
    06:00 +16°C° 0 mm 2 mps 741 mmHg 90%
    07:00 +17°C° 0 mm 2 mps 742 mmHg 86%
    08:00 +20°C° 0 mm 2 mps 742 mmHg 69%
    09:00 +24°C° 0 mm 2 mps 742 mmHg 51%
    10:00 +27°C° 0 mm 3 mps 742 mmHg 34%
    11:00 +28°C° 0 mm 3 mps 742 mmHg 30%
    12:00 +30°C° 0 mm 4 mps 741 mmHg 27%
    13:00 +32°C° 0 mm 4 mps 741 mmHg 23%
    14:00 +30°C° 0 mm 5 mps 741 mmHg 27%
    15:00 +29°C° 0 mm 5 mps 741 mmHg 30%
    16:00 +28°C° 0 mm 5 mps 741 mmHg 34%
    17:00 +26°C° 0 mm 4 mps 742 mmHg 43%
    18:00 +22°C° 0 mm 3 mps 742 mmHg 53%
    19:00 +20°C° 0 mm 3 mps 743 mmHg 62%
    20:00 +18°C° 0 mm 2 mps 743 mmHg 72%
    21:00 +16°C° 0 mm 2 mps 744 mmHg 82%
    22:00 +13°C° 0 mm 2 mps 744 mmHg 92%
    23:00 +13°C° 0 mm 2 mps 744 mmHg 94%

    23 January, Tuesday

    Time Temperature Precipitation Wind Pressure Humidity
    00:00 +12°C° 0 mm 2 mps 744 mmHg 96%
    01:00 +12°C° 0 mm 2 mps 744 mmHg 97%
    02:00 +10°C° 0 mm 2 mps 744 mmHg 97%
    03:00 +11°C° 0 mm 1 mps 744 mmHg 98%
    04:00 +11°C° 0 mm 1 mps 744 mmHg 98%
    05:00 +12°C° 0 mm 1 mps 745 mmHg 91%
    06:00 +14°C° 0 mm 1 mps 745 mmHg 84%
    07:00 +15°C° 0 mm 1 mps 745 mmHg 78%
    08:00 +19°C° 0 mm 1 mps 746 mmHg 65%
    09:00 +22°C° 0 mm 1 mps 746 mmHg 53%
    10:00 +25°C° 0 mm 1 mps 746 mmHg 41%
    11:00 +26°C° 0 mm 1 mps 746 mmHg 38%
    12:00 +27°C° 0 mm 2 mps 746 mmHg 36%
    13:00 +28°C° 0 mm 3 mps 745 mmHg 34%
    14:00 +27°C° 0 mm 3 mps 745 mmHg 38%
    15:00 +26°C° 0 mm 4 mps 745 mmHg 42%
    16:00 +25°C° 0 mm 4 mps 745 mmHg 47%
    17:00 +22°C° 0.1 mm 4 mps 745 mmHg 58%
    18:00 +20°C° 0.1 mm 3 mps 745 mmHg 70%
    19:00 +18°C° 0.1 mm 3 mps 745 mmHg 82%
    20:00 +17°C° 0 mm 3 mps 746 mmHg 86%
    21:00 +16°C° 0 mm 3 mps 746 mmHg 90%
    22:00 +16°C° 0 mm 2 mps 746 mmHg 94%
    23:00 +14°C° 0 mm 3 mps 745 mmHg 95%
    Show more